MST,Max TemperatureF,Mean TemperatureF,Min TemperatureF,Max Dew PointF,MeanDew PointF,Min DewpointF,Max Humidity, Mean Humidity, Min Humidity, Max Sea Level PressureIn, Mean Sea Level PressureIn, Min Sea Level PressureIn, Max VisibilityMiles, Mean VisibilityMiles, Min VisibilityMiles, Max Wind SpeedMPH, Mean Wind SpeedMPH, Max Gust SpeedMPH,PrecipitationIn, CloudCover, Events, WindDirDegrees
2012-11-1,82,60,37,23,17,10,36,21,10,30.16,30.09,30.01,10.0,10.0,10.0,8,3,16,0.00,0,,186
2012-11-2,78,58,39,32,24,12,36,26,15,30.10,30.04,29.99,10.0,10.0,10.0,10,3,,0.00,0,,279
2012-11-3,77,59,41,36,29,19,65,35,17,30.16,30.11,30.06,10.0,10.0,10.0,9,3,,0.00,0,,281
2012-11-4,78,58,37,30,22,18,48,29,13,30.26,30.20,30.16,10.0,10.0,7.0,8,2,,0.00,0,,240
2012-11-5,80,58,35,23,17,12,41,24,11,30.29,30.22,30.16,10.0,10.0,10.0,7,2,,0.00,0,,191
2012-11-6,80,56,33,23,15,9,36,21,8,30.28,30.21,30.15,10.0,10.0,10.0,7,3,,0.00,0,,223
2012-11-7,82,60,37,27,19,9,33,22,11,30.24,30.14,30.06,10.0,10.0,7.0,9,3,16,0.00,0,,185
2012-11-8,77,62,48,43,27,18,48,27,12,30.08,30.04,29.98,10.0,10.0,10.0,15,5,22,0.00,1,,236
2012-11-9,68,60,51,54,48,39,94,68,43,30.08,29.98,29.86,10.0,9.7,5.0,14,3,21,0.09,5,Rain-Thunderstorm,337
2012-11-10,60,51,42,45,35,23,76,52,33,30.03,29.90,29.83,10.0,10.0,10.0,30,17,39,0.00,3,Rain,280
2012-11-11,51,42,32,30,18,5,87,44,15,30.33,30.20,30.04,10.0,10.0,10.0,20,9,26,0.00,1,,310
2012-11-12,57,40,24,14,8,-0,50,27,13,30.43,30.32,30.24,10.0,10.0,10.0,22,10,30,0.00,0,,137
2012-11-13,64,46,28,10,5,-0,31,20,11,30.29,30.24,30.17,10.0,10.0,10.0,13,6,18,0.00,0,,151
2012-11-14,68,47,26,18,10,1,34,22,11,30.31,30.23,30.16,10.0,10.0,10.0,21,9,25,0.00,0,,147
2012-11-15,71,52,32,21,16,10,44,26,15,30.26,30.21,30.18,10.0,10.0,10.0,12,4,,0.00,0,,142
2012-11-16,71,62,51,21,18,12,28,20,15,30.26,30.21,30.16,10.0,10.0,10.0,24,12,32,0.00,3,,135
2012-11-17,68,54,41,41,26,16,62,34,24,30.23,30.18,30.13,10.0,10.0,10.0,15,4,18,0.00,3,Rain,156
2012-11-18,66,54,42,52,46,41,100,76,43,30.23,30.18,30.15,10.0,10.0,10.0,10,3,,0.03,3,Rain,196
2012-11-19,69,53,37,46,38,32,100,64,25,30.31,30.26,30.23,10.0,10.0,10.0,8,3,,0.00,0,,220
2012-11-20,71,52,32,34,32,28,93,47,23,30.32,30.23,30.16,10.0,10.0,10.0,18,6,30,0.00,0,,136
2012-11-21,75,60,46,37,34,32,57,37,25,30.21,30.14,30.08,10.0,10.0,10.0,20,7,24,0.00,3,,160
2012-11-22,73,54,35,37,29,18,75,43,16,30.24,30.17,30.12,10.0,10.0,10.0,10,3,16,0.00,0,,298
2012-11-23,68,50,33,28,24,18,56,35,23,30.40,30.33,30.24,10.0,10.0,10.0,26,10,34,0.00,0,,132
2012-11-24,68,54,41,30,24,19,57,36,23,30.37,30.25,30.12,10.0,10.0,10.0,15,10,22,0.00,0,,152
2012-11-25,73,52,32,32,24,18,65,39,16,30.12,30.05,29.95,10.0,10.0,10.0,17,2,23,0.00,0,,273
2012-11-26,71,52,33,27,21,12,52,33,15,30.23,30.12,30.03,10.0,10.0,10.0,12,2,17,0.00,0,,283
2012-11-27,68,56,44,28,25,19,43,33,21,30.36,30.29,30.24,10.0,10.0,10.0,20,12,28,0.00,0,,145
2012-11-28,69,52,35,34,29,21,60,40,27,30.32,30.25,30.18,10.0,10.0,10.0,20,6,24,0.00,0,,153
2012-11-29,71,52,33,32,27,23,75,43,16,30.27,30.21,30.15,10.0,10.0,10.0,12,3,18,0.00,0,,303
2012-11-30,71,52,33,36,28,21,65,43,23,30.25,30.19,30.12,10.0,10.0,10.0,9,3,,0.00,0,,298